Regional Weather Roundup
Issued by NWS San Diego, CA

Home | Current Version | Previous Version | Text Only | Print | Product List | Glossary On
Versions: 1 2 3 4 5 6 7 8 9 10 11 12 13 14 15 16 17 18 19 20 21 22 23 24 25 26 27 28 29 30 31 32 33 34 35 36 37 38 39 40 41 42 43 44 45 46 47 48 49 50
000
ASUS46 KSGX 282011
RWRSGX

SAN DIEGO HOURLY WEATHER ROUNDUP
NATIONAL WEATHER SERVICE SAN DIEGO CA
100 PM PDT THU JUL 28 2016

NOTE: "FAIR" INDICATES FEW OR NO CLOUDS BELOW 12,000 FEET WITH NO
SIGNIFICANT WEATHER AND/OR OBSTRUCTIONS TO VISIBILITY.

CAZ042-043-060-061-PZZ750-775-282100-

GREATER SAN DIEGO AREA

CITY           SKY/WX    TMP DP  RH WIND       PRES   REMARKS
LINDBERGH FLD  MOSUNNY   79  65  62 NW9       29.90F
POINT LOMA       N/A     77  67  70 W21         N/A
NATIONAL CITY    N/A     82  71  69 SW2       29.89F
CHULA VISTA      N/A     82  70  67 W6        29.81F
IMPERIAL BEACH MOSUNNY   81  67  62 W13       29.90S
BROWN FIELD    SUNNY     86  61  42 W9        29.89F
MIRAMAR MCAS   MOSUNNY   89  58  34 W13       29.89F
MONTGOMERY FLD SUNNY     88  58  36 NW8       29.89F

$$

NORTH SAN DIEGO COUNTY

CITY           SKY/WX    TMP DP  RH WIND       PRES   REMARKS
CAMP PENDLETON MOSUNNY   85  63  47 SW9       29.87F
OCEANSIDE AP   SUNNY     82  65  56 W12       29.88F
OCEANSIDE HBR    N/A     75  71  86 SW6       29.92F
VISTA            N/A     86  64  48 W6        29.86F
CARLSBAD       SUNNY     78  66  66 SW9       29.89F
DEL MAR          N/A     79  71  76 NW1       29.91F
LA JOLLA SCRIP   N/A     73  70  89 W7        29.89F
FALLBROOK        N/A     93  53  25 SW5       29.86F
ESCONDIDO        N/A     94  56  27 W5        29.88F
SAN MARCOS       N/A     88  64  45 SW9       29.91F
POWAY            N/A     93  61  33 SW8       29.87F

$$

EAST SAN DIEGO COUNTY

CITY           SKY/WX    TMP DP  RH WIND       PRES   REMARKS
RAMONA         SUNNY     93  53  25 NW6G16    29.92F
SANTEE LAKES     N/A     93  61  34 SW9       29.85F
LA MESA          N/A     89  60  36 CALM      29.80F
JAMUL            N/A     93  64  37 CALM      29.86F
DESCANSO N       N/A     91  54  28 W6        29.79F
MT. LAGUNA OBS   N/A     86  44  23 W2        29.79S
CAMPO            N/A     99  47  17 W14       29.93S HX  95

$$

ORANGE COUNTY AND THE LOS ANGELES BASIN

CITY           SKY/WX    TMP DP  RH WIND       PRES   REMARKS
JOHN WAYNE AP  MOSUNNY   82  64  54 SW8       29.88F
LAGUNA BEACH     N/A     80  71  73 SW3       29.84F
LAKE FOREST FR   N/A     91  56  30 CALM      29.75F
HUNTINGTON BCH   N/A     79  70  74 SW3       29.91F
FULLERTON      SUNNY     89  58  34 VRB3      29.87F
LONG BEACH     SUNNY     82  62  50 S8        29.89F
L.A. AP        SUNNY     78  64  61 W12       29.90F

$$

THE INLAND EMPIRE

CITY           SKY/WX    TMP DP  RH WIND       PRES   REMARKS
CORONA         SUNNY     94  60  32 W12       29.87F
CHINO          MOSUNNY   98  49  18 W9        29.88F HX  95
ONTARIO        MOSUNNY   96  48  19 W9        29.89F
SAN BERNARDINO SUNNY    100  45  15 W6        29.89F HX  96
RIVERSIDE AP   SUNNY     96  44  16 VRB5      29.88F
MORENO VALLEY    N/A     99  50  19 SW5       28.04F HX  96
HORSETHIEF CYN   N/A     95  46  18 NE9       29.88F
PERRIS           N/A     98  46  17 S5        29.90F
HEMET EAST       N/A     95  42  15 W6        29.75F
FRENCH VALLEY  FAIR      95  46  18 SW6       29.91F
TEMECULA         N/A     94  52  24 SW7       29.86F

$$

SAN BERNARDINO AND RIVERSIDE COUNTY MOUNTAINS

CITY           SKY/WX    TMP DP  RH WIND       PRES   REMARKS
BIG BEAR AP    MOSUNNY   84  39  20 NE9       30.31F
PINE COVE        N/A     84  47  27 W1        29.82F

$$

SOUTHERN DESERT INCLUDING THE COACHELLA VALLEY

CITY           SKY/WX    TMP DP  RH WIND       PRES   REMARKS
PALM SPRINGS   SUNNY    109  52  15 CALM      29.77F HX 107
THOUSAND PALMS   N/A    107  57  19 SE2       29.73F HX 107
PALM DESERT      N/A    110  59  19 CALM        N/A  HX 110
THERMAL        SUNNY    109  54  16 VRB3      29.71F HX 107
IMPERIAL AP    SUNNY    110  67  25 SE9G18    29.73F HX 116
EL CENTRO NAS  MOSUNNY  109  58  18 E12       29.75F HX 109
YUMA AZ        MOSUNNY  108  59  20 S14       29.77F HX 109
MEXICALI       SUNNY    106  61  23 SE13      29.77F HX 107

$$

UPPER DESERT

CITY           SKY/WX    TMP DP  RH WIND       PRES   REMARKS
VICTORVILLE AP MOSUNNY  104  41  11 CALM      29.96F HX  99
HESPERIA         N/A    104  52  17 W6        29.87F HX 102
PALMDALE       SUNNY    104  43  12 SW12G18   29.94F HX  99
LANCASTER      SUNNY    106  41  11 SW9G18    29.93S HX 100
DAGGETT        SUNNY    108  42  10 VRB6      29.86F HX 102
29 PALMS N     MOSUNNY  108  39   9 SW3       29.93F HX 102
NEEDLES        MOSUNNY  114  51  12 VRB5      29.77F HX 111

$$

REGIONAL REPORTS

CITY           SKY/WX    TMP DP  RH WIND       PRES   REMARKS
SANTA BARBARA  SUNNY     76  64  66 SW8       29.91S
SANDBERG       SUNNY     95  39  14 VRB7G18   30.15S
LAS VEGAS NV   MOSUNNY  111  40   9 CALM      29.82F HX 105
PHOENIX AZ     MOSUNNY  104  58  21 CALM      29.82F HX 104
TIJUANA        MOSUNNY   84  61  45 W15       29.92S
ENSENADA NW      N/A     75  32  20 W7        29.88R

$$

OFFSHORE ISLANDS

CITY           SKY/WX    TMP DP  RH WIND       PRES   REMARKS
CATALINA ARPT  SUNNY     79  56  45 SW7       29.97F
SAN NICOLAS IS PTSUNNY   76  56  49 NW14      29.92F

$$

MARINE AND OFFSHORE BUOY REPORTS

STATION/POSITION SKY/WX   TEMP    WIND        PRES    SWELL
                          AIR SEA DIR/SP/G            HT/PER/DIR
                          (F)     (DEG/KT/KT) (MB)    (FT/S/D)
TANNER BANKS               61 65  300/ 12/ 12 1013.6    5/310/10
S CLEMENTE BASIN           67 71  280/ 12/ 14 1012.3    3/280/10
SAN NICOLAS IS.               64                N/A     2/300/11
SO. S. ROSA ISLA           62 68  290/ 12/ 16 1013.6    5/320/10
W. S. BARBARA CH           60 67  310/ 16/ 17 1013.3    3/320/10
M. S. BARBARA CH                  270/ 10/ 12 1013.4F
S. MONICA BASIN            69 71  150/  6/  8 1012.8F
S PEDRO CHANNEL               73                N/A     2/170/13
OCEANSIDE OFFSHR                                N/A     2/200/13
TORREY PINES OTR              77                N/A     2/200/13
LA JOLLA 1                 74 70  290/  5/  6 1012.6F
SAN DIEGO BAY                 79              1012.6F
POINT LOMA SOUTH              73                N/A     2/200/13

$$




USA.gov is the U.S. government's official web portal to all federal, state and local government web resources and services.